This demonstration page uses our WeatherBlox Daily Observations layout. Learn more.

Left ArrowRight Arrow

Hourly Observations for October 11, 2020

Temp ( °F °C ) Dew Point ( °F °C ) Humidity (%) Winds ( mph kmh ) Pressure ( in mb ) Visibility ( mi km ) Precip ( " mm )
12:53 am 00:53 Clear 65 18.3 26 -3.3 23 23 NW 5 7 29.75 1007 10 16 0.00 0.00
1:53 am 01:53 Clear 63 17.2 26 -3.3 25 25 SE 8 13 29.75 1007 10 16 0.00 0.00
2:53 am 02:53 Clear 62 16.7 26 -3.3 25 25 SSE 8 13 29.74 1007 10 16 0.00 0.00
3:53 am 03:53 Clear 60 15.6 26 -3.3 27 27 SSW 7 11 29.75 1007 10 16 0.00 0.00
4:53 am 04:53 Clear 60 15.6 25 -3.9 26 26 W 3 6 29.75 1007 10 16 0.00 0.00
5:53 am 05:53 Clear 57 13.9 26 -3.3 30 30 Calm 29.75 1008 10 16 0.00 0.00
6:53 am 06:53 Clear 58 14.4 26 -3.3 29 29 W 3 6 29.77 1008 10 16 0.00 0.00
7:53 am 07:53 Clear 54 12.2 26 -3.3 34 34 Calm 29.81 1009 10 16 0.00 0.00
8:53 am 08:53 Sunny 60 15.6 28 -2.2 30 30 Calm 29.83 1010 10 16 0.00 0.00
9:53 am 09:53 Sunny 72 22.2 29 -1.7 20 20 Calm 29.83 1010 10 16 0.00 0.00
10:53 am 10:53 Sunny 81 27.2 29 -1.7 15 15 WSW 8 13 29.82 1010 10 16 0.00 0.00
11:53 am 11:53 Sunny 86 30 29 -1.7 13 13 WSW 9 15 29.81 1010 10 16 0.00 0.00
12:53 pm 12:53 Sunny 91 32.8 29 -1.7 11 11 WSW 9 15 29.80 1009 10 16 0.00 0.00
1:53 pm 13:53 Sunny 93 33.9 31 -0.6 11 11 W 12 19 29.77 1008 10 16 0.00 0.00
2:53 pm 14:53 Sunny 96 35.6 29 -1.7 9 9 W 18 30 29.73 1007 10 16 0.00 0.00
3:53 pm 15:53 Sunny 96 35.6 30 -1.1 10 10 W 21 33 29.71 1006 10 16 0.00 0.00
4:53 pm 16:53 Sunny 95 35 32 0 11 11 WSW 21 33 29.70 1006 10 16 0.00 0.00
5:53 pm 17:53 Sunny 94 34.4 33 0.6 12 12 W 20 31 29.71 1006 10 16 0.00 0.00
6:53 pm 18:53 Sunny 92 33.3 32 0 12 12 W 17 28 29.72 1006 10 16 0.00 0.00
7:53 pm 19:53 Clear 84 28.9 32 0 15 15 W 9 15 29.75 1008 10 16 0.00 0.00
8:53 pm 20:53 Clear 82 27.8 33 0.6 17 17 SW 12 19 29.76 1008 10 16 0.00 0.00
9:53 pm 21:53 Clear 74 23.3 32 0 21 21 WSW 9 15 29.78 1008 10 16 0.00 0.00
10:53 pm 22:53 Clear 76 24.4 34 1.1 22 22 W 10 17 29.78 1008 10 16 0.00 0.00
11:53 pm 23:53 Clear 77 25 34 1.1 21 21 W 12 19 29.77 1008 10 16 0.00 0.00

Powered by AerisWeather